| time (UTC) | temp C | wind direction | speed KPH | gust KPH | rain 1hr cm | rain 24hr cm | rain mn cm | humidity % | barometer mb |
| 20260503025653 | 8 | 186 | 0.0 | 0.0 | 0.00 | 0.00 | 0.00 | 90 | 1009.4 |
| 20260503024405 | 8 | 186 | 0.0 | 0.0 | 0.00 | 0.00 | 0.00 | 90 | 1009.6 |
| 20260503023903 | 8 | 186 | 0.0 | 0.0 | 0.00 | 0.00 | 0.00 | 89 | 1009.6 |
| 20260503023631 | 8 | 182 | 0.0 | 0.0 | 0.00 | 0.00 | 0.00 | 89 | 1009.7 |
| 20260503022902 | 8 | 182 | 0.0 | 0.0 | 0.00 | 0.00 | 0.00 | 89 | 1009.7 |
| 20260503022402 | 9 | 182 | 0.0 | 0.0 | 0.00 | 0.00 | 0.00 | 89 | 1009.7 |
| 20260503021903 | 9 | 182 | 0.0 | 0.0 | 0.00 | 0.00 | 0.00 | 89 | 1009.8 |
| 20260503021401 | 9 | 182 | 0.0 | 0.0 | 0.00 | 0.00 | 0.00 | 89 | 1009.9 |
| 20260503021128 | 9 | 182 | 0.0 | 0.0 | 0.00 | 0.00 | 0.00 | 89 | 1009.9 |
| 20260503020401 | 9 | 182 | 0.0 | 0.0 | 0.00 | 0.00 | 0.00 | 89 | 1009.9 |
| 20260503015902 | 9 | 182 | 0.0 | 0.0 | 0.00 | 0.00 | 0.00 | 89 | 1009.9 |
| 20260503015400 | 9 | 182 | 0.0 | 0.0 | 0.00 | 0.00 | 0.00 | 89 | 1009.9 |
| 20260503014857 | 9 | 182 | 0.0 | 0.0 | 0.00 | 0.00 | 0.00 | 89 | 1010.0 |
| 20260503014355 | 9 | 182 | 0.0 | 0.0 | 0.00 | 0.00 | 0.00 | 89 | 1010.0 |
| 20260503013855 | 9 | 182 | 0.0 | 0.0 | 0.00 | 0.00 | 0.00 | 88 | 1010.0 |
| 20260503013352 | 9 | 182 | 0.0 | 0.0 | 0.00 | 0.00 | 0.00 | 88 | 1010.0 |
| 20260503012852 | 9 | 182 | 0.0 | 0.0 | 0.00 | 0.00 | 0.00 | 88 | 1010.0 |
| 20260503012351 | 9 | 182 | 0.0 | 0.0 | 0.00 | 0.00 | 0.00 | 88 | 1010.1 |
| 20260503011853 | 9 | 182 | 0.0 | 0.0 | 0.00 | 0.00 | 0.00 | 88 | 1010.1 |
| 20260503011349 | 9 | 183 | 0.0 | 0.0 | 0.00 | 0.00 | 0.00 | 88 | 1010.0 |
| 20260503011107 | 9 | 183 | 0.0 | 0.0 | 0.00 | 0.00 | 0.00 | 88 | 1010.1 |
| 20260503010347 | 9 | 183 | 0.0 | 0.0 | 0.00 | 0.00 | 0.00 | 88 | 1009.9 |
| 20260503005345 | 9 | 183 | 0.0 | 0.0 | 0.00 | 0.00 | 0.00 | 87 | 1009.9 |
| 20260503004839 | 9 | 183 | 0.0 | 0.0 | 0.00 | 0.00 | 0.00 | 87 | 1009.7 |
| 20260503004334 | 9 | 183 | 0.0 | 0.0 | 0.00 | 0.00 | 0.00 | 87 | 1009.7 |
| 20260503003831 | 9 | 183 | 0.0 | 0.0 | 0.00 | 0.00 | 0.00 | 87 | 1009.7 |
| 20260503003558 | 9 | 183 | 0.0 | 0.0 | 0.00 | 0.00 | 0.00 | 87 | 1009.6 |
| 20260503003051 | 10 | 183 | 0.0 | 0.0 | 0.00 | 0.00 | 0.00 | 87 | 1009.7 |
| 20260503002330 | 10 | 184 | 0.0 | 0.0 | 0.00 | 0.00 | 0.00 | 86 | 1009.6 |
| 20260503001829 | 10 | 184 | 0.0 | 0.0 | 0.00 | 0.00 | 0.00 | 86 | 1009.7 |
| 20260503001329 | 10 | 219 | 0.0 | 0.0 | 0.00 | 0.00 | 0.00 | 86 | 1009.7 |
| 20260503000830 | 10 | 219 | 0.0 | 0.0 | 0.00 | 0.00 | 0.00 | 86 | 1009.6 |
| 20260503000328 | 10 | 219 | 0.0 | 0.0 | 0.00 | 0.00 | 0.00 | 86 | 1009.6 |
| 20260502235827 | 10 | 219 | 0.0 | 0.0 | 0.00 | 0.00 | 0.00 | 86 | 1009.7 |
| 20260502235328 | 10 | 219 | 0.0 | 0.0 | 0.00 | 0.00 | 0.00 | 86 | 1009.7 |
| 20260502234829 | 10 | 219 | 0.0 | 0.0 | 0.00 | 0.00 | 0.00 | 86 | 1009.7 |
| 20260502234327 | 10 | 219 | 0.0 | 0.0 | 0.00 | 0.00 | 0.00 | 86 | 1009.7 |
| 20260502233824 | 10 | 219 | 0.0 | 0.0 | 0.00 | 0.00 | 0.00 | 86 | 1009.8 |
| 20260502233323 | 10 | 219 | 0.0 | 0.0 | 0.00 | 0.00 | 0.00 | 86 | 1009.8 |
| 20260502232826 | 10 | 219 | 0.0 | 0.0 | 0.00 | 0.00 | 0.00 | 86 | 1009.7 |
| 20260502232335 | 10 | 219 | 0.0 | 0.0 | 0.00 | 0.00 | 0.00 | 85 | 1009.7 |
| 20260502231824 | 10 | 219 | 0.0 | 0.0 | 0.00 | 0.00 | 0.00 | 85 | 1009.8 |
| 20260502231327 | 10 | 219 | 0.0 | 0.0 | 0.00 | 0.00 | 0.00 | 85 | 1009.8 |
| 20260502231050 | 10 | 219 | 0.0 | 0.0 | 0.00 | 0.00 | 0.00 | 85 | 1009.7 |
| 20260502230550 | 10 | 218 | 0.0 | 1.6 | 0.00 | 0.00 | 0.00 | 85 | 1009.8 |
| 20260502225813 | 10 | 218 | 0.0 | 3.2 | 0.00 | 0.00 | 0.00 | 85 | 1009.8 |
| 20260502224812 | 10 | 217 | 0.0 | 1.6 | 0.00 | 0.00 | 0.00 | 85 | 1009.9 |
| 20260502224314 | 10 | 217 | 0.0 | 1.6 | 0.00 | 0.00 | 0.00 | 85 | 1009.8 |
| 20260502223811 | 10 | 209 | 0.0 | 1.6 | 0.00 | 0.00 | 0.00 | 85 | 1009.8 |
| 20260502223311 | 10 | 225 | 0.0 | 3.2 | 0.00 | 0.00 | 0.00 | 85 | 1009.8 |
| 20260502223045 | 10 | 226 | 0.0 | 3.2 | 0.00 | 0.00 | 0.00 | 85 | 1009.7 |
| 20260502222545 | 10 | 209 | 0.0 | 0.0 | 0.00 | 0.00 | 0.00 | 85 | 1009.7 |
| 20260502221808 | 10 | 209 | 0.0 | 0.0 | 0.00 | 0.00 | 0.00 | 85 | 1009.6 |
| 20260502221306 | 10 | 203 | 0.0 | 1.6 | 0.00 | 0.00 | 0.00 | 85 | 1009.7 |
| 20260502220803 | 10 | 197 | 0.0 | 3.2 | 0.00 | 0.00 | 0.00 | 85 | 1009.7 |
| 20260502220303 | 10 | 203 | 0.0 | 3.2 | 0.00 | 0.00 | 0.00 | 85 | 1009.7 |
| 20260502215807 | 10 | 194 | 1.6 | 6.4 | 0.00 | 0.00 | 0.00 | 85 | 1009.7 |
| 20260502215305 | 10 | 205 | 1.6 | 6.4 | 0.00 | 0.00 | 0.00 | 84 | 1009.7 |
| 20260502214802 | 10 | 236 | 1.6 | 4.8 | 0.00 | 0.00 | 0.00 | 84 | 1009.8 |
| 20260502214537 | 10 | 244 | 1.6 | 4.8 | 0.00 | 0.00 | 0.00 | 84 | 1009.6 |
| 20260502213804 | 10 | 217 | 1.6 | 4.8 | 0.00 | 0.00 | 0.00 | 84 | 1009.6 |
| 20260502213534 | 10 | 132 | 0.0 | 3.2 | 0.00 | 0.00 | 0.00 | 84 | 1009.5 |
| 20260502212803 | 10 | 119 | 0.0 | 3.2 | 0.00 | 0.00 | 0.00 | 84 | 1009.4 |
| 20260502212541 | 10 | 95 | 0.0 | 3.2 | 0.00 | 0.00 | 0.00 | 84 | 1009.5 |
| 20260502211805 | 10 | 125 | 0.0 | 3.2 | 0.00 | 0.00 | 0.00 | 84 | 1009.6 |
| 20260502211536 | 10 | 220 | 0.0 | 3.2 | 0.00 | 0.00 | 0.00 | 84 | 1009.6 |
| 20260502210802 | 10 | 133 | 0.0 | 3.2 | 0.00 | 0.00 | 0.00 | 84 | 1009.5 |
| 20260502210301 | 10 | 214 | 0.0 | 1.6 | 0.00 | 0.00 | 0.00 | 84 | 1009.5 |
| 20260502205804 | 10 | 198 | 0.0 | 3.2 | 0.00 | 0.00 | 0.00 | 84 | 1009.6 |
| 20260502205302 | 10 | 211 | 1.6 | 4.8 | 0.00 | 0.00 | 0.00 | 84 | 1009.7 |
| 20260502204801 | 10 | 209 | 1.6 | 4.8 | 0.00 | 0.00 | 0.00 | 84 | 1009.8 |
| 20260502204538 | 10 | 162 | 0.0 | 4.8 | 0.00 | 0.00 | 0.00 | 84 | 1009.8 |
| 20260502203802 | 10 | 152 | 0.0 | 3.2 | 0.00 | 0.00 | 0.00 | 85 | 1009.8 |
| 20260502203532 | 10 | 109 | 1.6 | 3.2 | 0.00 | 0.00 | 0.00 | 84 | 1009.9 |
| 20260502202756 | 10 | 192 | 1.6 | 4.8 | 0.00 | 0.00 | 0.00 | 84 | 1009.8 |
| 20260502201755 | 10 | 177 | 0.0 | 6.4 | 0.00 | 0.00 | 0.00 | 84 | 1009.9 |
| 20260502201256 | 10 | 201 | 0.0 | 4.8 | 0.00 | 0.00 | 0.00 | 84 | 1010.0 |
| 20260502200755 | 10 | 223 | 1.6 | 6.4 | 0.00 | 0.00 | 0.00 | 84 | 1010.0 |
| 20260502200256 | 10 | 221 | 0.0 | 6.4 | 0.00 | 0.00 | 0.00 | 84 | 1010.1 |
| 20260502195756 | 10 | 46 | 0.0 | 3.2 | 0.00 | 0.00 | 0.00 | 84 | 1010.1 |
| 20260502195255 | 10 | 106 | 1.6 | 3.2 | 0.00 | 0.00 | 0.00 | 85 | 1010.1 |
| 20260502194755 | 10 | 209 | 1.6 | 6.4 | 0.00 | 0.00 | 0.00 | 85 | 1010.1 |
| 20260502194251 | 10 | 184 | 1.6 | 6.4 | 0.00 | 0.00 | 0.00 | 84 | 1010.2 |
| 20260502193751 | 10 | 148 | 1.6 | 6.4 | 0.00 | 0.00 | 0.00 | 85 | 1010.2 |
| 20260502193252 | 10 | 152 | 1.6 | 6.4 | 0.00 | 0.00 | 0.00 | 85 | 1010.4 |
| 20260502192753 | 10 | 166 | 1.6 | 6.4 | 0.00 | 0.00 | 0.00 | 85 | 1010.3 |
| 20260502192251 | 10 | 105 | 1.6 | 8.0 | 0.00 | 0.00 | 0.00 | 84 | 1010.3 |
| 20260502192020 | 10 | 246 | 3.2 | 8.0 | 0.00 | 0.00 | 0.00 | 84 | 1010.4 |
| 20260502191249 | 10 | 194 | 3.2 | 8.0 | 0.00 | 0.00 | 0.00 | 84 | 1010.6 |
| 20260502191026 | 10 | 202 | 3.2 | 9.7 | 0.00 | 0.00 | 0.00 | 84 | 1010.7 |
| 20260502190525 | 10 | 124 | 1.6 | 9.7 | 0.00 | 0.00 | 0.00 | 84 | 1010.6 |
| 20260502185748 | 10 | 200 | 1.6 | 8.0 | 0.00 | 0.00 | 0.00 | 83 | 1010.8 |
| 20260502185243 | 11 | 184 | 3.2 | 12.9 | 0.00 | 0.00 | 0.00 | 83 | 1010.9 |
| 20260502184740 | 11 | 201 | 3.2 | 12.9 | 0.00 | 0.00 | 0.00 | 82 | 1010.9 |
| 20260502184233 | 11 | 204 | 3.2 | 11.3 | 0.00 | 0.00 | 0.00 | 82 | 1011.0 |
| 20260502183732 | 11 | 148 | 3.2 | 11.3 | 0.00 | 0.00 | 0.00 | 82 | 1011.0 |
| 20260502183233 | 11 | 146 | 3.2 | 11.3 | 0.00 | 0.00 | 0.00 | 81 | 1011.0 |
| 20260502182232 | 11 | 199 | 4.8 | 17.7 | 0.00 | 0.00 | 0.00 | 80 | 1011.1 |
| 20260502181731 | 11 | 225 | 3.2 | 11.3 | 0.00 | 0.00 | 0.00 | 80 | 1010.9 |
| 20260502181230 | 11 | 160 | 1.6 | 11.3 | 0.00 | 0.00 | 0.00 | 79 | 1010.8 |
| 20260502180729 | 11 | 145 | 1.6 | 11.3 | 0.00 | 0.00 | 0.00 | 79 | 1010.9 |
| 20260502180229 | 11 | 180 | 1.6 | 11.3 | 0.00 | 0.00 | 0.00 | 79 | 1011.0 |
| 20260502170230 | 11 | 187 | 3.2 | 9.7 | 0.00 | 0.00 | 0.00 | 80 | 1011.1 |
| 20260502164238 | 11 | 200 | 4.8 | 11.3 | 0.00 | 0.00 | 0.00 | 80 | 1011.2 |
| 20260502163734 | 11 | 200 | 4.8 | 12.9 | 0.00 | 0.00 | 0.00 | 80 | 1011.4 |
| 20260502163232 | 11 | 227 | 3.2 | 12.9 | 0.00 | 0.00 | 0.00 | 79 | 1011.3 |
| 20260502162736 | 11 | 273 | 4.8 | 11.3 | 0.00 | 0.00 | 0.00 | 79 | 1011.2 |
| 20260502162229 | 11 | 226 | 6.4 | 12.9 | 0.00 | 0.00 | 0.00 | 79 | 1011.2 |
| 20260502161726 | 11 | 252 | 4.8 | 12.9 | 0.00 | 0.00 | 0.00 | 79 | 1011.3 |
| 20260502161228 | 12 | 159 | 4.8 | 9.7 | 0.00 | 0.00 | 0.00 | 78 | 1011.3 |
| 20260502160726 | 12 | 193 | 3.2 | 12.9 | 0.00 | 0.00 | 0.00 | 79 | 1011.2 |
| 20260502160226 | 12 | 207 | 6.4 | 16.1 | 0.00 | 0.00 | 0.00 | 79 | 1011.3 |
| 20260502151951 | 12 | 80 | 1.6 | 4.8 | 0.00 | 0.00 | 0.00 | 80 | 1011.4 |
| 20260502151218 | 12 | 156 | 1.6 | 6.4 | 0.00 | 0.00 | 0.00 | 79 | 1011.5 |
| 20260502150720 | 12 | 153 | 3.2 | 6.4 | 0.00 | 0.00 | 0.00 | 80 | 1011.7 |
| 20260502150218 | 12 | 259 | 3.2 | 6.4 | 0.00 | 0.00 | 0.00 | 79 | 1011.8 |
| 20260502130706 | 11 | 250 | 3.2 | 8.0 | 0.00 | 0.00 | 0.00 | 81 | 1012.1 |
| 20260502130206 | 11 | 205 | 3.2 | 9.7 | 0.00 | 0.00 | 0.00 | 81 | 1012.1 |
| 20260502123703 | 10 | 232 | 0.0 | 4.8 | 0.00 | 0.00 | 0.00 | 82 | 1012.1 |
| 20260502123205 | 10 | 215 | 1.6 | 4.8 | 0.00 | 0.00 | 0.00 | 83 | 1012.1 |
| 20260502122937 | 10 | 192 | 3.2 | 8.0 | 0.00 | 0.00 | 0.00 | 83 | 1012.1 |
| 20260502122204 | 10 | 194 | 3.2 | 8.0 | 0.00 | 0.00 | 0.00 | 82 | 1012.1 |
| 20260502121703 | 10 | 186 | 3.2 | 6.4 | 0.00 | 0.00 | 0.00 | 83 | 1012.1 |
| 20260502121203 | 10 | 135 | 3.2 | 12.9 | 0.00 | 0.00 | 0.00 | 83 | 1012.0 |
| 20260502120703 | 10 | 280 | 3.2 | 12.9 | 0.00 | 0.00 | 0.00 | 83 | 1011.9 |
| 20260502120204 | 10 | 211 | 3.2 | 11.3 | 0.00 | 0.00 | 0.00 | 83 | 1011.9 |
| 20260502115704 | 10 | 221 | 3.2 | 11.3 | 0.00 | 0.00 | 0.00 | 83 | 1011.8 |
| 20260502115204 | 10 | 263 | 3.2 | 11.3 | 0.00 | 0.00 | 0.00 | 83 | 1011.8 |
| 20260502114703 | 10 | 162 | 3.2 | 9.7 | 0.00 | 0.00 | 0.00 | 84 | 1011.8 |
| 20260502114427 | 10 | 192 | 4.8 | 11.3 | 0.00 | 0.00 | 0.00 | 84 | 1011.8 |
| 20260502113706 | 9 | 222 | 3.2 | 11.3 | 0.00 | 0.00 | 0.00 | 84 | 1011.8 |
| 20260502113428 | 9 | 223 | 1.6 | 8.0 | 0.00 | 0.00 | 0.00 | 84 | 1011.9 |
| 20260502112701 | 9 | 231 | 1.6 | 6.4 | 0.00 | 0.00 | 0.00 | 84 | 1011.9 |
| 20260502112200 | 9 | 219 | 3.2 | 8.0 | 0.00 | 0.00 | 0.00 | 85 | 1011.9 |
| 20260502111702 | 9 | 201 | 3.2 | 11.3 | 0.00 | 0.00 | 0.00 | 84 | 1011.7 |
| 20260502111202 | 9 | 211 | 3.2 | 11.3 | 0.00 | 0.00 | 0.00 | 85 | 1011.7 |
| 20260502110701 | 8 | 194 | 3.2 | 8.0 | 0.00 | 0.00 | 0.00 | 85 | 1011.6 |
| 20260502110202 | 8 | 200 | 3.2 | 8.0 | 0.00 | 0.00 | 0.00 | 84 | 1011.6 |
| 20260502105929 | 8 | 205 | 3.2 | 8.0 | 0.00 | 0.00 | 0.00 | 85 | 1011.7 |
| 20260502105203 | 8 | 249 | 3.2 | 8.0 | 0.00 | 0.00 | 0.00 | 85 | 1011.6 |
| 20260502104703 | 8 | 215 | 1.6 | 6.4 | 0.00 | 0.00 | 0.00 | 85 | 1011.6 |
| 20260502104425 | 8 | 211 | 1.6 | 6.4 | 0.00 | 0.00 | 0.00 | 85 | 1011.6 |
| 20260502103701 | 8 | 215 | 0.0 | 6.4 | 0.00 | 0.00 | 0.00 | 85 | 1011.6 |
| 20260502103201 | 8 | 218 | 0.0 | 4.8 | 0.00 | 0.00 | 0.00 | 84 | 1011.5 |
| 20260502102659 | 8 | 188 | 1.6 | 4.8 | 0.00 | 0.00 | 0.00 | 84 | 1011.5 |
| 20260502102158 | 8 | 226 | 1.6 | 6.4 | 0.00 | 0.00 | 0.00 | 84 | 1011.5 |
| 20260502101655 | 8 | 225 | 1.6 | 6.4 | 0.00 | 0.00 | 0.00 | 84 | 1011.4 |
| 20260502101154 | 8 | 211 | 1.6 | 4.8 | 0.00 | 0.00 | 0.00 | 84 | 1011.4 |
| 20260502100651 | 8 | 204 | 1.6 | 8.0 | 0.00 | 0.00 | 0.00 | 84 | 1011.2 |
| 20260502100419 | 8 | 222 | 1.6 | 8.0 | 0.00 | 0.00 | 0.00 | 83 | 1011.2 |
| 20260502091145 | 7 | 185 | 0.0 | 3.2 | 0.00 | 0.00 | 0.00 | 82 | 1011.1 |
| 20260502090646 | 7 | 185 | 1.6 | 4.8 | 0.00 | 0.00 | 0.00 | 82 | 1011.0 |
| 20260502090144 | 7 | 174 | 1.6 | 4.8 | 0.00 | 0.00 | 0.00 | 82 | 1011.2 |
| 20260502070904 | 8 | 194 | 1.6 | 6.4 | 0.00 | 0.00 | 0.00 | 80 | 1011.2 |
| 20260502070130 | 8 | 205 | 3.2 | 8.0 | 0.00 | 0.00 | 0.00 | 80 | 1011.2 |
| 20260502065858 | 8 | 199 | 3.2 | 8.0 | 0.00 | 0.00 | 0.00 | 80 | 1011.3 |
| 20260502065356 | 8 | 209 | 3.2 | 6.4 | 0.00 | 0.00 | 0.00 | 79 | 1011.2 |
| 20260502064623 | 8 | 206 | 1.6 | 4.8 | 0.00 | 0.00 | 0.00 | 79 | 1011.1 |
| 20260502064126 | 8 | 193 | 1.6 | 6.4 | 0.00 | 0.00 | 0.00 | 79 | 1011.1 |
| 20260502063622 | 8 | 232 | 3.2 | 8.0 | 0.00 | 0.00 | 0.00 | 78 | 1011.1 |
| 20260502063122 | 8 | 264 | 3.2 | 8.0 | 0.00 | 0.00 | 0.00 | 77 | 1011.3 |
| 20260502062622 | 8 | 209 | 3.2 | 8.0 | 0.00 | 0.00 | 0.00 | 77 | 1011.3 |
| 20260502062357 | 9 | 209 | 3.2 | 9.7 | 0.00 | 0.00 | 0.00 | 76 | 1011.4 |
| 20260502061621 | 9 | 214 | 3.2 | 9.7 | 0.00 | 0.00 | 0.00 | 76 | 1011.5 |
| 20260502061357 | 9 | 224 | 4.8 | 11.3 | 0.00 | 0.00 | 0.00 | 75 | 1011.5 |
| 20260502060621 | 9 | 224 | 4.8 | 16.1 | 0.00 | 0.00 | 0.00 | 75 | 1011.4 |
| 20260502060121 | 9 | 205 | 4.8 | 16.1 | 0.00 | 0.00 | 0.00 | 75 | 1011.4 |
| 20260502055621 | 9 | 207 | 4.8 | 14.5 | 0.00 | 0.00 | 0.00 | 75 | 1011.5 |
| 20260502055355 | 9 | 230 | 3.2 | 14.5 | 0.00 | 0.00 | 0.00 | 75 | 1011.4 |
| 20260502054621 | 9 | 226 | 3.2 | 14.5 | 0.00 | 0.00 | 0.00 | 76 | 1011.5 |
| 20260502054356 | 9 | 209 | 4.8 | 11.3 | 0.00 | 0.00 | 0.00 | 76 | 1011.5 |
| 20260502053902 | 9 | 207 | 4.8 | 12.9 | 0.00 | 0.00 | 0.00 | 76 | 1011.6 |
| 20260502053121 | 9 | 188 | 3.2 | 12.9 | 0.00 | 0.00 | 0.00 | 77 | 1011.7 |
| 20260502052848 | 9 | 190 | 3.2 | 8.0 | 0.00 | 0.00 | 0.00 | 77 | 1011.8 |
| 20260502052120 | 8 | 195 | 3.2 | 9.7 | 0.00 | 0.00 | 0.00 | 77 | 1011.8 |
| 20260502051622 | 8 | 200 | 3.2 | 9.7 | 0.00 | 0.00 | 0.00 | 77 | 1011.8 |
| 20260502051121 | 8 | 237 | 3.2 | 11.3 | 0.00 | 0.00 | 0.00 | 77 | 1011.7 |
| 20260502050621 | 8 | 211 | 3.2 | 11.3 | 0.00 | 0.00 | 0.00 | 77 | 1011.7 |
| 20260502050122 | 8 | 206 | 3.2 | 6.4 | 0.00 | 0.00 | 0.00 | 76 | 1011.7 |
| 20260502045622 | 8 | 234 | 3.2 | 6.4 | 0.00 | 0.00 | 0.00 | 76 | 1011.6 |
| 20260502045124 | 8 | 223 | 3.2 | 8.0 | 0.00 | 0.00 | 0.00 | 76 | 1011.7 |
| 20260502044623 | 8 | 242 | 3.2 | 8.0 | 0.00 | 0.00 | 0.00 | 75 | 1011.7 |
| 20260502044124 | 8 | 252 | 3.2 | 8.0 | 0.00 | 0.00 | 0.00 | 75 | 1011.7 |
| 20260502043622 | 8 | 257 | 1.6 | 6.4 | 0.00 | 0.00 | 0.00 | 75 | 1011.7 |
| 20260502043119 | 9 | 194 | 1.6 | 6.4 | 0.00 | 0.00 | 0.00 | 75 | 1011.7 |
| 20260502042615 | 9 | 239 | 1.6 | 6.4 | 0.00 | 0.00 | 0.00 | 75 | 1011.7 |
| 20260502042118 | 9 | 209 | 3.2 | 6.4 | 0.00 | 0.00 | 0.00 | 74 | 1011.8 |
| 20260502041616 | 9 | 207 | 3.2 | 6.4 | 0.00 | 0.00 | 0.00 | 74 | 1011.8 |
| 20260502041118 | 9 | 225 | 3.2 | 8.0 | 0.00 | 0.00 | 0.00 | 73 | 1011.7 |
| 20260502040616 | 9 | 251 | 3.2 | 8.0 | 0.00 | 0.00 | 0.00 | 73 | 1011.8 |
| 20260502040344 | 9 | 205 | 3.2 | 8.0 | 0.00 | 0.00 | 0.00 | 73 | 1011.8 |
| 20260502035621 | 9 | 236 | 3.2 | 11.3 | 0.00 | 0.00 | 0.00 | 73 | 1011.8 |
| 20260502034618 | 10 | 127 | 3.2 | 9.7 | 0.00 | 0.00 | 0.00 | 72 | 1011.8 |
| 20260502034117 | 10 | 234 | 3.2 | 9.7 | 0.00 | 0.00 | 0.00 | 72 | 1011.9 |
| 20260502033614 | 10 | 218 | 3.2 | 9.7 | 0.00 | 0.00 | 0.00 | 73 | 1011.8 |
| 20260502033344 | 10 | 207 | 4.8 | 14.5 | 0.00 | 0.00 | 0.00 | 72 | 1011.8 |
| 20260502032612 | 10 | 221 | 3.2 | 14.5 | 0.00 | 0.00 | 0.00 | 73 | 1011.8 |
| 20260502032110 | 10 | 191 | 3.2 | 8.0 | 0.00 | 0.00 | 0.00 | 73 | 1011.8 |
| 20260502031610 | 10 | 213 | 4.8 | 16.1 | 0.00 | 0.00 | 0.00 | 73 | 1011.8 |
| 20260502031332 | 10 | 195 | 3.2 | 16.1 | 0.00 | 0.00 | 0.00 | 73 | 1011.8 |
| 20260502030608 | 10 | 223 | 3.2 | 9.7 | 0.00 | 0.00 | 0.00 | 73 | 1011.8 |
| 20260502030105 | 10 | 200 | 3.2 | 9.7 | 0.00 | 0.00 | 0.00 | 73 | 1011.7 |
| 20260502025831 | 10 | 197 | 3.2 | 8.0 | 0.00 | 0.00 | 0.00 | 73 | 1011.8 |